• în Republica Moldova
  • Lista ţărilor
  • Pe 7 zile
  • Temperatura apei
  • Hartă satelitară
  • Meteo pe hartă
  • Widget-uri
  • user-avatar
    Intrare

    Meteo pe oră la Coasta de Aur

    Astăzi, 22 Ianuarie, Duminică

    Timp Temperatura Precipitaţii Vânt Presiune Umiditate
    00:00 +23°C° 0 mm 6 m/s 756 mmHg 80%
    01:00 +23°C° 0 mm 6 m/s 756 mmHg 81%
    02:00 +23°C° 0 mm 6 m/s 756 mmHg 82%
    03:00 +22°C° 0 mm 6 m/s 756 mmHg 83%
    04:00 +22°C° 0 mm 6 m/s 756 mmHg 84%
    05:00 +22°C° 0 mm 6 m/s 756 mmHg 80%
    06:00 +23°C° 0 mm 6 m/s 757 mmHg 77%
    07:00 +24°C° 0 mm 7 m/s 757 mmHg 73%
    08:00 +26°C° 0 mm 7 m/s 757 mmHg 68%
    09:00 +27°C° 0 mm 7 m/s 757 mmHg 64%
    10:00 +28°C° 0 mm 7 m/s 758 mmHg 59%
    11:00 +28°C° 0 mm 7 m/s 757 mmHg 59%
    12:00 +28°C° 0 mm 7 m/s 757 mmHg 59%
    13:00 +28°C° 0 mm 7 m/s 757 mmHg 59%
    14:00 +28°C° 0 mm 6 m/s 757 mmHg 60%
    15:00 +27°C° 0 mm 6 m/s 757 mmHg 62%
    16:00 +27°C° 0 mm 6 m/s 757 mmHg 63%
    17:00 +26°C° 0 mm 6 m/s 757 mmHg 67%
    18:00 +25°C° 0 mm 5 m/s 757 mmHg 71%
    19:00 +23°C° 0 mm 5 m/s 757 mmHg 75%
    20:00 +22°C° 0 mm 4 m/s 758 mmHg 78%
    21:00 +21°C° 0 mm 4 m/s 758 mmHg 82%
    22:00 +20°C° 0 mm 4 m/s 759 mmHg 86%
    23:00 +20°C° 0 mm 4 m/s 758 mmHg 86%

    Mâine, 23 Ianuarie, Luni

    Timp Temperatura Precipitaţii Vânt Presiune Umiditate
    00:00 +19°C° 0 mm 4 m/s 758 mmHg 87%
    01:00 +19°C° 0 mm 4 m/s 757 mmHg 88%
    02:00 +19°C° 0 mm 4 m/s 757 mmHg 88%
    03:00 +19°C° 0 mm 4 m/s 757 mmHg 88%
    04:00 +18°C° 0 mm 4 m/s 757 mmHg 89%
    05:00 +20°C° 0 mm 4 m/s 757 mmHg 84%
    06:00 +21°C° 0 mm 4 m/s 758 mmHg 79%
    07:00 +23°C° 0 mm 4 m/s 758 mmHg 74%
    08:00 +25°C° 0 mm 4 m/s 758 mmHg 67%
    09:00 +26°C° 0 mm 4 m/s 758 mmHg 61%
    10:00 +28°C° 0 mm 4 m/s 758 mmHg 55%
    11:00 +29°C° 0 mm 4 m/s 758 mmHg 53%
    12:00 +29°C° 0 mm 4 m/s 758 mmHg 51%
    13:00 +30°C° 0 mm 4 m/s 758 mmHg 49%
    14:00 +30°C° 0 mm 4 m/s 757 mmHg 52%
    15:00 +29°C° 0 mm 4 m/s 757 mmHg 54%
    16:00 +29°C° 0 mm 4 m/s 756 mmHg 57%
    17:00 +27°C° 0 mm 4 m/s 757 mmHg 63%
    18:00 +25°C° 0 mm 4 m/s 757 mmHg 70%
    19:00 +23°C° 0 mm 4 m/s 758 mmHg 76%
    20:00 +22°C° 0 mm 4 m/s 758 mmHg 80%
    21:00 +21°C° 0 mm 3 m/s 758 mmHg 83%
    22:00 +20°C° 0 mm 3 m/s 759 mmHg 86%
    23:00 +20°C° 0 mm 3 m/s 758 mmHg 88%

    Poimâine, 24 Ianuarie, Marţi

    Timp Temperatura Precipitaţii Vânt Presiune Umiditate
    00:00 +19°C° 0 mm 3 m/s 758 mmHg 89%
    01:00 +19°C° 0 mm 2 m/s 758 mmHg 91%
    02:00 +19°C° 0 mm 2 m/s 758 mmHg 91%
    03:00 +19°C° 0 mm 2 m/s 758 mmHg 91%
    04:00 +19°C° 0 mm 2 m/s 757 mmHg 91%
    05:00 +21°C° 0 mm 2 m/s 758 mmHg 86%
    06:00 +23°C° 0 mm 2 m/s 758 mmHg 80%
    07:00 +25°C° 0 mm 2 m/s 758 mmHg 75%
    08:00 +27°C° 0 mm 2 m/s 758 mmHg 68%
    09:00 +28°C° 0 mm 3 m/s 758 mmHg 60%
    10:00 +30°C° 0 mm 3 m/s 758 mmHg 52%
    11:00 +32°C° 0 mm 4 m/s 758 mmHg 50%
    12:00 +33°C° 0 mm 4 m/s 757 mmHg 47%
    13:00 +34°C° 0 mm 4 m/s 757 mmHg 44%
    14:00 +33°C° 0 mm 4 m/s 756 mmHg 47%
    15:00 +33°C° 0 mm 5 m/s 756 mmHg 49%
    16:00 +32°C° 0 mm 5 m/s 756 mmHg 52%
    17:00 +29°C° 0 mm 5 m/s 756 mmHg 59%
    18:00 +27°C° 0 mm 5 m/s 757 mmHg 67%
    19:00 +25°C° 0 mm 4 m/s 757 mmHg 74%
    20:00 +23°C° 0 mm 4 m/s 757 mmHg 78%
    21:00 +22°C° 0 mm 4 m/s 758 mmHg 82%
    22:00 +22°C° 0 mm 4 m/s 758 mmHg 85%
    23:00 +21°C° 0 mm 3 m/s 758 mmHg 87%

    25 Ianuarie, Miercuri

    Timp Temperatura Precipitaţii Vânt Presiune Umiditate
    00:00 +21°C° 0 mm 3 m/s 758 mmHg 88%
    01:00 +21°C° 0 mm 3 m/s 757 mmHg 89%
    02:00 +20°C° 0 mm 3 m/s 757 mmHg 90%
    03:00 +20°C° 0 mm 3 m/s 757 mmHg 90%
    04:00 +20°C° 0 mm 3 m/s 757 mmHg 91%
    05:00 +21°C° 0 mm 2 m/s 757 mmHg 86%
    06:00 +24°C° 0 mm 2 m/s 758 mmHg 81%
    07:00 +25°C° 0 mm 2 m/s 759 mmHg 75%
    08:00 +27°C° 0 mm 2 m/s 759 mmHg 69%
    09:00 +29°C° 0 mm 2 m/s 759 mmHg 62%
    10:00 +31°C° 0 mm 2 m/s 759 mmHg 55%
    11:00 +33°C° 0 mm 3 m/s 759 mmHg 53%
    12:00 +34°C° 0 mm 3 m/s 758 mmHg 50%
    13:00 +34°C° 0 mm 4 m/s 758 mmHg 48%
    14:00 +34°C° 0 mm 4 m/s 758 mmHg 51%
    15:00 +33°C° 0 mm 4 m/s 757 mmHg 54%
    16:00 +32°C° 0 mm 4 m/s 757 mmHg 57%
    17:00 +29°C° 0 mm 4 m/s 758 mmHg 64%
    18:00 +27°C° 0 mm 4 m/s 758 mmHg 72%
    19:00 +25°C° 0 mm 4 m/s 759 mmHg 80%
    20:00 +24°C° 0 mm 3 m/s 759 mmHg 83%
    21:00 +22°C° 0 mm 3 m/s 759 mmHg 87%
    22:00 +21°C° 0 mm 3 m/s 759 mmHg 90%
    23:00 +21°C° 0 mm 3 m/s 759 mmHg 91%

    26 Ianuarie, Joi

    Timp Temperatura Precipitaţii Vânt Presiune Umiditate
    00:00 +21°C° 0 mm 2 m/s 758 mmHg 92%
    01:00 +21°C° 0 mm 2 m/s 758 mmHg 92%
    02:00 +20°C° 0 mm 2 m/s 758 mmHg 92%
    03:00 +20°C° 0 mm 2 m/s 758 mmHg 91%
    04:00 +20°C° 0 mm 2 m/s 758 mmHg 91%
    05:00 +23°C° 0 mm 2 m/s 758 mmHg 85%
    06:00 +24°C° 0 mm 2 m/s 758 mmHg 80%
    07:00 +26°C° 0 mm 2 m/s 759 mmHg 75%
    08:00 +27°C° 0 mm 2 m/s 759 mmHg 69%
    09:00 +29°C° 0 mm 2 m/s 759 mmHg 63%
    10:00 +30°C° 0 mm 2 m/s 759 mmHg 56%
    11:00 +31°C° 0 mm 3 m/s 758 mmHg 54%
    12:00 +31°C° 0 mm 3 m/s 757 mmHg 52%
    13:00 +33°C° 0 mm 3 m/s 757 mmHg 50%
    14:00 +33°C° 0 mm 3 m/s 756 mmHg 52%
    15:00 +32°C° 0 mm 4 m/s 756 mmHg 55%
    16:00 +32°C° 0 mm 4 m/s 756 mmHg 57%
    17:00 +29°C° 0 mm 4 m/s 756 mmHg 65%
    18:00 +27°C° 0 mm 4 m/s 757 mmHg 72%
    19:00 +25°C° 0 mm 3 m/s 757 mmHg 79%
    20:00 +25°C° 0 mm 3 m/s 758 mmHg 82%
    21:00 +24°C° 0 mm 3 m/s 758 mmHg 85%
    22:00 +24°C° 0 mm 3 m/s 758 mmHg 88%
    23:00 +22°C° 0 mm 3 m/s 758 mmHg 88%

    27 Ianuarie, Vineri

    Timp Temperatura Precipitaţii Vânt Presiune Umiditate
    00:00 +23°C° 0 mm 2 m/s 758 mmHg 88%
    01:00 +23°C° 0 mm 2 m/s 757 mmHg 88%
    02:00 +23°C° 0 mm 2 m/s 757 mmHg 87%
    03:00 +23°C° 0 mm 2 m/s 757 mmHg 86%
    04:00 +24°C° 0 mm 2 m/s 757 mmHg 85%
    05:00 +24°C° 0 mm 2 m/s 757 mmHg 82%
    06:00 +25°C° 0 mm 2 m/s 758 mmHg 79%
    07:00 +26°C° 0 mm 2 m/s 758 mmHg 76%
    08:00 +27°C° 0 mm 2 m/s 758 mmHg 71%
    09:00 +28°C° 0 mm 3 m/s 758 mmHg 65%
    10:00 +29°C° 0 mm 3 m/s 758 mmHg 60%
    11:00 +30°C° 0 mm 3 m/s 758 mmHg 59%
    12:00 +30°C° 0 mm 3 m/s 757 mmHg 59%
    13:00 +30°C° 0 mm 3 m/s 757 mmHg 58%
    14:00 +30°C° 0 mm 3 m/s 757 mmHg 58%
    15:00 +30°C° 0 mm 4 m/s 756 mmHg 58%
    16:00 +30°C° 0 mm 4 m/s 756 mmHg 58%
    17:00 +29°C° 0 mm 4 m/s 756 mmHg 65%
    18:00 +27°C° 0 mm 4 m/s 757 mmHg 72%
    19:00 +25°C° 0 mm 3 m/s 757 mmHg 80%
    20:00 +24°C° 0 mm 3 m/s 757 mmHg 84%
    21:00 +24°C° 0 mm 3 m/s 757 mmHg 87%
    22:00 +22°C° 0 mm 3 m/s 758 mmHg 91%
    23:00 +21°C° 0 mm 3 m/s 757 mmHg 92%
    Arată mai mult